Simultaneous Nadir Overpasses (SNOs) Predictions

Prediction of SNOs between NOAA-19 and TERRA Satellite Orbit:

Table of predicted SNOs for the next 14.0 days since TLE Epoch: 12/7/2024
Index Date (NOAA-19) Time (NOAA-19) Lat,Lon (NOAA-19) SZA (NOAA-19 ) Date (TERRA) Time (TERRA) Lat,Lon (TERRA) SZA (TERRA ) Distance(km) Time Diff (sec)
1 12/08/2024 19:48:24 -47.87, 36.19 106.05 12/08/2024 19:49:14 -47.98, 35.62 105.85 44.51 50
2 12/08/2024 20:40:12 45.00,-157.72 71.63 12/08/2024 20:39:21 45.04,-157.79 71.75 6.78 51
3 12/10/2024 22:46:44 -48.57, -8.09 105.24 12/10/2024 22:47:46 -48.69, -8.82 105.00 55.49 62
4 12/10/2024 23:38:43 45.05, 157.71 71.90 12/10/2024 23:38:04 45.09, 157.51 72.05 16.52 39
5 12/13/2024 01:45:16 -48.57, -52.67 105.03 12/13/2024 01:46:18 -49.36, -53.27 104.23 97.61 62
6 12/13/2024 02:37:15 45.02, 113.12 72.09 12/13/2024 02:36:47 45.10, 112.80 72.29 26.64 28
7 12/15/2024 05:35:46 45.04, 68.54 72.28 12/15/2024 05:35:29 45.13, 68.09 72.52 36.54 17
8 12/17/2024 08:34:17 45.04, 23.96 72.42 12/17/2024 08:34:11 45.12, 23.38 72.68 46.38 6
9 12/19/2024 11:32:44 45.26, -20.54 72.71 12/19/2024 11:32:48 45.37, -21.24 73.02 56.45 4



Historial Predications of SNOs between NOAA-19 and TERRA
